TimeMST,TemperatureF,Dew PointF,Humidity,Sea Level PressureIn,VisibilityMPH,Wind Direction,Wind SpeedMPH,Gust SpeedMPH,PrecipitationIn,Events,Conditions,WindDirDegrees,DateUTC
12:40 AM,66.2,57.2,73,29.98,10.0,Calm,Calm,-,N/A,,Clear,0,2012-11-07 07:40:00
1:30 AM,67,49,41,29.95,5,NE,2.2,,,,,50,2012-11-07 08:30:00
1:40 AM,66.2,57.2,73,29.94,10.0,Calm,Calm,-,N/A,,Clear,0,2012-11-07 08:40:00
2:41 AM,66.2,57.2,73,29.96,10.0,Calm,Calm,-,N/A,,Clear,0,2012-11-07 09:41:00
3:40 AM,66.2,50.0,56,29.95,10.0,Calm,Calm,-,N/A,,Clear,0,2012-11-07 10:40:00
4:40 AM,64.4,44.6,49,29.92,10.0,Calm,Calm,-,N/A,,Clear,0,2012-11-07 11:40:00
5:41 AM,64.4,42.8,45,29.96,10.0,Calm,Calm,-,N/A,,Clear,0,2012-11-07 12:41:00
6:40 AM,66.2,41.0,40,29.97,10.0,Calm,Calm,-,N/A,,Partly Cloudy,0,2012-11-07 13:40:00
7:40 AM,68.0,39.2,35,29.97,10.0,Calm,Calm,-,N/A,,Clear,0,2012-11-07 14:40:00
8:40 AM,75.2,39.2,27,30.00,10.0,Calm,Calm,-,N/A,,Clear,0,2012-11-07 15:40:00
9:41 AM,84.2,39.2,20,30.00,10.0,Calm,Calm,-,N/A,,Clear,0,2012-11-07 16:41:00
10:40 AM,87.8,37.4,17,29.94,10.0,Calm,Calm,-,N/A,,Clear,0,2012-11-07 17:40:00
11:44 AM,91.4,35.6,14,29.96,10.0,Calm,Calm,-,N/A,,Clear,0,2012-11-07 18:44:00
12:40 PM,95.0,35.6,12,29.92,10.0,Calm,Calm,-,N/A,,Scattered Clouds,0,2012-11-07 19:40:00
1:40 PM,95,41,8,29.86,7,SW,2.2,,,,Clear,230,2012-11-07 20:40:00
1:41 PM,96.8,35.6,12,29.84,10.0,SW,4.6,-,N/A,,Mostly Cloudy,220,2012-11-07 20:41:00
2:49 PM,96.8,33.8,11,29.88,12.0,SSW,9.2,-,N/A,,Overcast,200,2012-11-07 21:49:00
3:46 PM,96.8,33.8,11,29.88,12.0,SW,4.6,-,N/A,,Overcast,230,2012-11-07 22:46:00
4:38 PM,92,42,10,29.84,7,SW,2.2,,,,Partly Cloudy,230,2012-11-07 23:38:00
4:42 PM,93.2,35.6,13,29.86,12.0,SW,6.9,-,N/A,,Overcast,220,2012-11-07 23:42:00
5:45 PM,87.8,39.2,18,29.89,10.0,SSW,6.9,-,N/A,,Overcast,210,2012-11-08 00:45:00
6:41 PM,86.0,42.8,22,29.90,10.0,SSW,4.6,-,N/A,,Overcast,210,2012-11-08 01:41:00
7:30 PM,84,52,23,29.88,5,SW,2.2,,,,Mostly Cloudy,220,2012-11-08 02:30:00
7:44 PM,82.4,48.2,30,29.90,10.0,South,4.6,-,N/A,,Overcast,190,2012-11-08 02:44:00
8:41 PM,80.6,48.2,32,29.91,10.0,Calm,Calm,-,N/A,,Overcast,0,2012-11-08 03:41:00
9:43 PM,77.0,50.0,39,29.93,10.0,Calm,Calm,-,N/A,,Overcast,0,2012-11-08 04:43:00
10:30 PM,78,51,28,29.88,5,Calm,Calm,,,,Mostly Cloudy,,2012-11-08 05:30:00
10:57 PM,77.0,51.8,41,29.88,10.0,Calm,Calm,-,N/A,,Overcast,0,2012-11-08 05:57:00
11:42 PM,71.6,50.0,46,29.92,10.0,Calm,Calm,-,N/A,,Overcast,0,2012-11-08 06:42:00